| time (UTC) | temp F | wind direction | speed knots | gust knots | rain 1hr in | rain 24hr in | rain mn in | humidity % | barometer mb |
| 20260506145513 | 81 | 193 | 4.3 | 10.4 | 0.00 | 0.00 | 0.00 | 83 | 1007.2 |
| 20260506145013 | 81 | 165 | 4.3 | 10.4 | 0.00 | 0.00 | 0.00 | 83 | 1007.2 |
| 20260506144515 | 81 | 177 | 7.8 | 12.2 | 0.00 | 0.00 | 0.00 | 82 | 1007.2 |
| 20260506143013 | 81 | 164 | 5.2 | 7.8 | 0.00 | 0.00 | 0.00 | 85 | 1007.2 |
| 20260506142512 | 80 | 159 | 7.0 | 11.3 | 0.00 | 0.00 | 0.00 | 85 | 1007.2 |
| 20260506141511 | 80 | 165 | 6.1 | 10.4 | 0.00 | 0.00 | 0.00 | 85 | 1007.2 |
| 20260506141012 | 80 | 152 | 7.8 | 10.4 | 0.00 | 0.00 | 0.00 | 86 | 1007.2 |
| 20260506140512 | 79 | 172 | 6.1 | 11.3 | 0.00 | 0.00 | 0.00 | 87 | 1007.1 |
| 20260506140012 | 79 | 150 | 7.8 | 10.4 | 0.00 | 0.00 | 0.00 | 87 | 1007.2 |
| 20260506135512 | 79 | 156 | 7.0 | 10.4 | 0.00 | 0.00 | 0.00 | 87 | 1007.3 |
| 20260506135012 | 79 | 155 | 7.0 | 8.7 | 0.00 | 0.00 | 0.00 | 88 | 1007.2 |
| 20260506134512 | 79 | 149 | 7.0 | 10.4 | 0.00 | 0.00 | 0.00 | 88 | 1007.2 |
| 20260506134012 | 79 | 152 | 7.8 | 10.4 | 0.00 | 0.00 | 0.00 | 89 | 1007.1 |
| 20260506133513 | 78 | 148 | 7.8 | 8.7 | 0.00 | 0.00 | 0.00 | 88 | 1007.2 |
| 20260506133013 | 78 | 135 | 6.1 | 8.7 | 0.00 | 0.00 | 0.00 | 89 | 1007.2 |
| 20260506132512 | 78 | 139 | 6.1 | 8.7 | 0.00 | 0.00 | 0.00 | 89 | 1007.2 |
| 20260506132012 | 78 | 148 | 6.1 | 8.7 | 0.00 | 0.00 | 0.00 | 88 | 1007.2 |
| 20260506131512 | 78 | 139 | 6.1 | 10.4 | 0.00 | 0.00 | 0.00 | 89 | 1007.2 |
| 20260506131012 | 78 | 148 | 7.0 | 8.7 | 0.00 | 0.00 | 0.00 | 89 | 1007.2 |
| 20260506130512 | 78 | 139 | 6.1 | 8.7 | 0.00 | 0.00 | 0.00 | 89 | 1007.2 |
| 20260506130012 | 78 | 141 | 5.2 | 7.8 | 0.00 | 0.00 | 0.00 | 90 | 1007.1 |
| 20260506125513 | 78 | 139 | 6.1 | 7.8 | 0.00 | 0.00 | 0.00 | 89 | 1006.9 |
| 20260506125012 | 78 | 139 | 6.1 | 7.8 | 0.00 | 0.00 | 0.00 | 90 | 1006.9 |
| 20260506124512 | 78 | 147 | 5.2 | 7.8 | 0.00 | 0.00 | 0.00 | 90 | 1006.9 |
| 20260506124012 | 78 | 143 | 6.1 | 7.8 | 0.00 | 0.00 | 0.00 | 90 | 1006.9 |
| 20260506123512 | 77 | 147 | 6.1 | 7.8 | 0.00 | 0.00 | 0.00 | 90 | 1006.8 |
| 20260506123012 | 77 | 144 | 6.1 | 7.8 | 0.00 | 0.00 | 0.00 | 90 | 1006.8 |
| 20260506122012 | 77 | 142 | 6.1 | 8.7 | 0.00 | 0.00 | 0.00 | 90 | 1006.8 |
| 20260506121512 | 77 | 143 | 6.1 | 8.7 | 0.00 | 0.00 | 0.00 | 90 | 1006.8 |
| 20260506121012 | 77 | 143 | 7.0 | 8.7 | 0.00 | 0.00 | 0.00 | 90 | 1006.8 |
| 20260506120512 | 77 | 143 | 6.1 | 7.8 | 0.00 | 0.00 | 0.00 | 90 | 1006.7 |
| 20260506120014 | 77 | 146 | 6.1 | 8.7 | 0.00 | 0.00 | 0.00 | 90 | 1006.7 |
| 20260506115011 | 77 | 143 | 6.1 | 7.8 | 0.00 | 0.00 | 0.00 | 90 | 1006.6 |
| 20260506114512 | 77 | 144 | 6.1 | 8.7 | 0.00 | 0.00 | 0.00 | 90 | 1006.6 |
| 20260506114012 | 77 | 141 | 5.2 | 7.0 | 0.00 | 0.00 | 0.00 | 90 | 1006.6 |
| 20260506113512 | 77 | 138 | 5.2 | 7.0 | 0.00 | 0.00 | 0.00 | 90 | 1006.6 |
| 20260506113013 | 77 | 150 | 4.3 | 7.0 | 0.00 | 0.00 | 0.00 | 90 | 1006.7 |
| 20260506112512 | 77 | 150 | 4.3 | 7.0 | 0.00 | 0.00 | 0.00 | 90 | 1006.7 |
| 20260506112012 | 77 | 147 | 5.2 | 7.8 | 0.00 | 0.00 | 0.00 | 90 | 1006.6 |
| 20260506111512 | 77 | 146 | 5.2 | 8.7 | 0.00 | 0.00 | 0.00 | 90 | 1006.5 |
| 20260506111013 | 77 | 148 | 6.1 | 7.8 | 0.00 | 0.00 | 0.00 | 90 | 1006.5 |
| 20260506110513 | 77 | 139 | 6.1 | 8.7 | 0.00 | 0.00 | 0.00 | 90 | 1006.5 |
| 20260506110013 | 77 | 142 | 5.2 | 7.0 | 0.00 | 0.00 | 0.00 | 90 | 1006.6 |
| 20260506105513 | 77 | 139 | 5.2 | 6.1 | 0.00 | 0.00 | 0.00 | 90 | 1006.7 |
| 20260506105012 | 77 | 140 | 5.2 | 7.0 | 0.00 | 0.00 | 0.00 | 90 | 1006.6 |
| 20260506104512 | 77 | 137 | 5.2 | 7.0 | 0.00 | 0.00 | 0.00 | 90 | 1006.6 |
| 20260506103513 | 77 | 132 | 4.3 | 7.0 | 0.00 | 0.00 | 0.00 | 90 | 1006.6 |
| 20260506103013 | 77 | 140 | 5.2 | 7.0 | 0.00 | 0.00 | 0.00 | 90 | 1006.7 |
| 20260506102511 | 77 | 137 | 6.1 | 7.8 | 0.00 | 0.00 | 0.00 | 90 | 1006.7 |
| 20260506102012 | 77 | 133 | 6.1 | 7.8 | 0.00 | 0.00 | 0.00 | 90 | 1006.7 |
| 20260506101013 | 77 | 146 | 4.3 | 6.1 | 0.00 | 0.00 | 0.00 | 90 | 1006.6 |
| 20260506100512 | 77 | 150 | 4.3 | 6.1 | 0.00 | 0.00 | 0.00 | 90 | 1006.5 |
| 20260506100012 | 77 | 143 | 4.3 | 5.2 | 0.00 | 0.00 | 0.00 | 90 | 1006.5 |
| 20260506095013 | 77 | 149 | 2.6 | 4.3 | 0.00 | 0.00 | 0.00 | 90 | 1006.5 |
| 20260506094512 | 77 | 137 | 2.6 | 4.3 | 0.00 | 0.00 | 0.00 | 89 | 1006.7 |
| 20260506094017 | 77 | 132 | 2.6 | 5.2 | 0.00 | 0.00 | 0.00 | 89 | 1006.6 |
| 20260506093513 | 78 | 137 | 2.6 | 4.3 | 0.00 | 0.00 | 0.00 | 88 | 1006.6 |
| 20260506093015 | 78 | 158 | 4.3 | 6.1 | 0.00 | 0.00 | 0.00 | 88 | 1006.5 |
| 20260506092512 | 78 | 168 | 4.3 | 7.8 | 0.00 | 0.00 | 0.00 | 88 | 1006.5 |
| 20260506092012 | 78 | 161 | 4.3 | 7.8 | 0.00 | 0.00 | 0.00 | 87 | 1006.6 |
| 20260506091512 | 78 | 156 | 5.2 | 7.8 | 0.00 | 0.00 | 0.00 | 87 | 1006.6 |
| 20260506091012 | 78 | 144 | 6.1 | 12.2 | 0.00 | 0.00 | 0.00 | 86 | 1006.6 |
| 20260506090512 | 78 | 151 | 7.8 | 10.4 | 0.00 | 0.00 | 0.00 | 85 | 1006.5 |
| 20260506090012 | 78 | 156 | 7.0 | 10.4 | 0.00 | 0.00 | 0.00 | 85 | 1006.4 |
| 20260506085513 | 78 | 156 | 7.0 | 10.4 | 0.00 | 0.00 | 0.00 | 85 | 1006.3 |
| 20260506085011 | 78 | 151 | 7.8 | 11.3 | 0.00 | 0.00 | 0.00 | 86 | 1006.3 |
| 20260506084512 | 78 | 159 | 6.1 | 10.4 | 0.00 | 0.00 | 0.00 | 85 | 1006.3 |
| 20260506083512 | 79 | 161 | 6.1 | 10.4 | 0.00 | 0.00 | 0.00 | 85 | 1006.4 |
| 20260506083012 | 79 | 152 | 6.1 | 8.7 | 0.00 | 0.00 | 0.00 | 85 | 1006.4 |
| 20260506082012 | 78 | 163 | 7.8 | 12.2 | 0.00 | 0.00 | 0.00 | 85 | 1006.4 |
| 20260506081511 | 78 | 158 | 6.1 | 11.3 | 0.00 | 0.00 | 0.00 | 85 | 1006.3 |
| 20260506073012 | 78 | 149 | 6.1 | 12.2 | 0.00 | 0.00 | 0.00 | 85 | 1006.5 |
| 20260506072511 | 79 | 156 | 7.0 | 11.3 | 0.00 | 0.00 | 0.00 | 85 | 1006.5 |
| 20260506072012 | 78 | 161 | 6.1 | 11.3 | 0.00 | 0.00 | 0.00 | 86 | 1006.5 |
| 20260506071512 | 78 | 155 | 8.7 | 12.2 | 0.00 | 0.00 | 0.00 | 87 | 1006.5 |
| 20260506071012 | 78 | 168 | 7.8 | 10.4 | 0.00 | 0.00 | 0.00 | 87 | 1006.5 |
| 20260506062511 | 78 | 158 | 7.0 | 11.3 | 0.00 | 0.00 | 0.00 | 87 | 1006.8 |
| 20260506062012 | 78 | 161 | 7.8 | 11.3 | 0.00 | 0.00 | 0.00 | 88 | 1006.9 |
| 20260506061512 | 78 | 161 | 7.8 | 12.2 | 0.00 | 0.00 | 0.00 | 88 | 1006.9 |
| 20260506061012 | 78 | 158 | 8.7 | 12.2 | 0.00 | 0.00 | 0.00 | 88 | 1006.9 |
| 20260506060512 | 78 | 154 | 8.7 | 12.2 | 0.00 | 0.00 | 0.00 | 87 | 1006.9 |
| 20260506045013 | 78 | 171 | 7.0 | 14.8 | 0.00 | 0.00 | 0.00 | 87 | 1007.2 |
| 20260506044511 | 78 | 167 | 7.0 | 11.3 | 0.00 | 0.00 | 0.00 | 87 | 1007.2 |
| 20260506044012 | 78 | 169 | 7.0 | 11.3 | 0.00 | 0.00 | 0.00 | 87 | 1007.2 |
| 20260506043512 | 78 | 171 | 6.1 | 11.3 | 0.00 | 0.00 | 0.00 | 87 | 1007.2 |
| 20260506042511 | 78 | 168 | 7.8 | 14.8 | 0.00 | 0.00 | 0.00 | 87 | 1007.0 |
| 20260506042012 | 78 | 165 | 7.8 | 15.6 | 0.00 | 0.00 | 0.00 | 87 | 1007.0 |
| 20260506041511 | 78 | 171 | 7.8 | 12.2 | 0.00 | 0.00 | 0.00 | 87 | 1007.0 |
| 20260506041012 | 78 | 163 | 8.7 | 13.9 | 0.00 | 0.00 | 0.00 | 87 | 1006.9 |
| 20260506040011 | 78 | 176 | 7.8 | 13.9 | 0.00 | 0.00 | 0.00 | 87 | 1006.6 |
| 20260506035511 | 78 | 165 | 8.7 | 13.9 | 0.00 | 0.00 | 0.00 | 87 | 1006.4 |
| 20260506034512 | 78 | 178 | 6.1 | 14.8 | 0.00 | 0.00 | 0.00 | 87 | 1006.5 |
| 20260506034012 | 78 | 155 | 6.1 | 15.6 | 0.00 | 0.00 | 0.00 | 87 | 1006.4 |
| 20260506032511 | 78 | 173 | 7.0 | 11.3 | 0.00 | 0.00 | 0.00 | 86 | 1006.1 |
| 20260506032014 | 78 | 162 | 7.8 | 11.3 | 0.00 | 0.00 | 0.00 | 87 | 1006.2 |
| 20260506031511 | 78 | 161 | 7.8 | 12.2 | 0.00 | 0.00 | 0.00 | 86 | 1006.2 |
| 20260506031013 | 78 | 159 | 7.8 | 12.2 | 0.00 | 0.00 | 0.00 | 86 | 1006.0 |
| 20260506030511 | 78 | 168 | 7.0 | 12.2 | 0.00 | 0.00 | 0.00 | 86 | 1006.0 |
| 20260506030012 | 78 | 154 | 9.6 | 12.2 | 0.00 | 0.00 | 0.00 | 86 | 1005.9 |
| 20260506025512 | 78 | 167 | 7.8 | 12.2 | 0.00 | 0.00 | 0.00 | 86 | 1006.0 |
| 20260506024511 | 79 | 161 | 11.3 | 14.8 | 0.00 | 0.00 | 0.00 | 85 | 1005.6 |
| 20260506023512 | 79 | 155 | 8.7 | 13.9 | 0.00 | 0.00 | 0.00 | 85 | 1005.7 |
| 20260506023012 | 79 | 157 | 8.7 | 14.8 | 0.00 | 0.00 | 0.00 | 84 | 1005.6 |
| 20260506021518 | 79 | 159 | 10.4 | 17.4 | 0.00 | 0.00 | 0.00 | 84 | 1005.5 |
| 20260506021012 | 79 | 156 | 11.3 | 18.2 | 0.00 | 0.00 | 0.00 | 83 | 1005.4 |
| 20260506020512 | 79 | 157 | 11.3 | 15.6 | 0.00 | 0.00 | 0.00 | 83 | 1005.4 |
| 20260506020011 | 80 | 151 | 11.3 | 18.2 | 0.00 | 0.00 | 0.00 | 82 | 1005.3 |
| 20260506015011 | 80 | 150 | 9.6 | 13.0 | 0.00 | 0.00 | 0.00 | 82 | 1005.3 |
| 20260506014012 | 80 | 159 | 9.6 | 15.6 | 0.00 | 0.00 | 0.00 | 81 | 1005.2 |
| 20260506013512 | 80 | 156 | 7.8 | 13.0 | 0.00 | 0.00 | 0.00 | 81 | 1005.2 |
| 20260506012511 | 80 | 154 | 10.4 | 17.4 | 0.00 | 0.00 | 0.00 | 81 | 1005.1 |
| 20260506012012 | 81 | 155 | 9.6 | 15.6 | 0.00 | 0.00 | 0.00 | 80 | 1005.1 |
| 20260506011512 | 81 | 165 | 11.3 | 15.6 | 0.00 | 0.00 | 0.00 | 80 | 1004.9 |
| 20260506011012 | 81 | 158 | 9.6 | 15.6 | 0.00 | 0.00 | 0.00 | 80 | 1004.9 |
| 20260506010512 | 81 | 150 | 9.6 | 14.8 | 0.00 | 0.00 | 0.00 | 79 | 1004.9 |
| 20260506010011 | 81 | 145 | 11.3 | 14.8 | 0.00 | 0.00 | 0.00 | 78 | 1004.9 |
| 20260506005512 | 81 | 151 | 9.6 | 13.9 | 0.00 | 0.00 | 0.00 | 78 | 1004.7 |
| 20260506005011 | 81 | 154 | 11.3 | 14.8 | 0.00 | 0.00 | 0.00 | 78 | 1004.6 |
| 20260506004511 | 82 | 154 | 11.3 | 14.8 | 0.00 | 0.00 | 0.00 | 77 | 1004.6 |
| 20260506004011 | 82 | 165 | 8.7 | 14.8 | 0.00 | 0.00 | 0.00 | 76 | 1004.6 |
| 20260506003511 | 82 | 156 | 13.0 | 18.2 | 0.00 | 0.00 | 0.00 | 76 | 1004.6 |
| 20260506002511 | 82 | 154 | 12.2 | 17.4 | 0.00 | 0.00 | 0.00 | 75 | 1004.5 |
| 20260506002012 | 83 | 157 | 10.4 | 17.4 | 0.00 | 0.00 | 0.00 | 74 | 1004.5 |
| 20260506001512 | 83 | 157 | 11.3 | 17.4 | 0.00 | 0.00 | 0.00 | 74 | 1004.5 |
| 20260506001012 | 83 | 158 | 11.3 | 14.8 | 0.00 | 0.00 | 0.00 | 73 | 1004.4 |
| 20260506000011 | 84 | 147 | 13.0 | 19.1 | 0.00 | 0.00 | 0.00 | 71 | 1004.3 |
| 20260505235511 | 84 | 151 | 13.0 | 19.1 | 0.00 | 0.00 | 0.00 | 71 | 1004.2 |
| 20260505235012 | 85 | 157 | 10.4 | 17.4 | 0.00 | 0.00 | 0.00 | 70 | 1004.3 |
| 20260505234511 | 85 | 158 | 11.3 | 19.1 | 0.00 | 0.00 | 0.00 | 70 | 1004.1 |
| 20260505234011 | 85 | 151 | 11.3 | 17.4 | 0.00 | 0.00 | 0.00 | 70 | 1004.0 |
| 20260505233511 | 84 | 138 | 13.9 | 19.1 | 0.00 | 0.00 | 0.00 | 70 | 1004.0 |
| 20260505233012 | 84 | 145 | 13.0 | 18.2 | 0.00 | 0.00 | 0.00 | 71 | 1004.1 |
| 20260505232511 | 84 | 142 | 11.3 | 19.1 | 0.00 | 0.00 | 0.00 | 72 | 1004.0 |
| 20260505232012 | 84 | 126 | 12.2 | 15.6 | 0.00 | 0.00 | 0.00 | 72 | 1004.0 |
| 20260505231012 | 84 | 129 | 11.3 | 15.6 | 0.00 | 0.00 | 0.00 | 72 | 1004.0 |
| 20260505230011 | 84 | 122 | 12.2 | 18.2 | 0.00 | 0.00 | 0.00 | 71 | 1004.0 |
| 20260505225511 | 84 | 118 | 13.0 | 19.1 | 0.00 | 0.00 | 0.00 | 71 | 1004.1 |
| 20260505225011 | 85 | 121 | 12.2 | 18.2 | 0.00 | 0.00 | 0.00 | 71 | 1004.1 |
| 20260505224511 | 85 | 129 | 11.3 | 18.2 | 0.00 | 0.00 | 0.00 | 70 | 1004.0 |
| 20260505224011 | 85 | 121 | 11.3 | 18.2 | 0.00 | 0.00 | 0.00 | 70 | 1003.9 |
| 20260505223511 | 85 | 110 | 12.2 | 20.0 | 0.00 | 0.00 | 0.00 | 70 | 1004.0 |
| 20260505222512 | 87 | 138 | 12.2 | 17.4 | 0.00 | 0.00 | 0.00 | 66 | 1004.0 |
| 20260505222012 | 88 | 130 | 7.8 | 13.0 | 0.00 | 0.00 | 0.00 | 65 | 1004.0 |
| 20260505221511 | 87 | 135 | 10.4 | 14.8 | 0.00 | 0.00 | 0.00 | 65 | 1004.0 |
| 20260505221011 | 87 | 145 | 11.3 | 15.6 | 0.00 | 0.00 | 0.00 | 65 | 1004.0 |
| 20260505220011 | 87 | 134 | 12.2 | 17.4 | 0.00 | 0.00 | 0.00 | 65 | 1004.1 |
| 20260505214511 | 88 | 178 | 7.8 | 13.9 | 0.00 | 0.00 | 0.00 | 65 | 1004.3 |
| 20260505214011 | 88 | 143 | 11.3 | 18.2 | 0.00 | 0.00 | 0.00 | 64 | 1004.3 |
| 20260505213011 | 89 | 151 | 10.4 | 13.9 | 0.00 | 0.00 | 0.00 | 64 | 1004.3 |
| 20260505212511 | 89 | 141 | 11.3 | 15.6 | 0.00 | 0.00 | 0.00 | 61 | 1004.4 |
| 20260505212012 | 90 | 154 | 8.7 | 13.9 | 0.00 | 0.00 | 0.00 | 59 | 1004.5 |
| 20260505211012 | 90 | 170 | 6.1 | 12.2 | 0.00 | 0.00 | 0.00 | 60 | 1004.7 |
| 20260505210512 | 90 | 143 | 7.8 | 12.2 | 0.00 | 0.00 | 0.00 | 58 | 1004.8 |
| 20260505210011 | 89 | 147 | 7.8 | 10.4 | 0.00 | 0.00 | 0.00 | 59 | 1004.8 |
| 20260505205512 | 89 | 175 | 5.2 | 12.2 | 0.00 | 0.00 | 0.00 | 60 | 1004.9 |
| 20260505205011 | 89 | 151 | 7.8 | 12.2 | 0.00 | 0.00 | 0.00 | 60 | 1005.0 |
| 20260505204511 | 89 | 143 | 8.7 | 12.2 | 0.00 | 0.00 | 0.00 | 59 | 1005.0 |
| 20260505204012 | 89 | 132 | 7.8 | 11.3 | 0.00 | 0.00 | 0.00 | 58 | 1005.1 |
| 20260505203511 | 89 | 173 | 4.3 | 11.3 | 0.00 | 0.00 | 0.00 | 57 | 1005.2 |
| 20260505203011 | 89 | 149 | 6.1 | 11.3 | 0.00 | 0.00 | 0.00 | 59 | 1005.2 |
| 20260505202511 | 89 | 179 | 6.1 | 11.3 | 0.00 | 0.00 | 0.00 | 58 | 1005.3 |
| 20260505202012 | 89 | 153 | 7.0 | 13.0 | 0.00 | 0.00 | 0.00 | 57 | 1005.3 |
| 20260505201512 | 89 | 150 | 7.0 | 18.2 | 0.00 | 0.00 | 0.00 | 59 | 1005.4 |
| 20260505201012 | 90 | 156 | 6.1 | 15.6 | 0.00 | 0.00 | 0.00 | 55 | 1005.5 |
| 20260505200512 | 90 | 172 | 8.7 | 13.0 | 0.00 | 0.00 | 0.00 | 54 | 1005.4 |
| 20260505200011 | 90 | 195 | 6.1 | 10.4 | 0.00 | 0.00 | 0.00 | 57 | 1005.5 |
| 20260505195511 | 90 | 169 | 5.2 | 11.3 | 0.00 | 0.00 | 0.00 | 56 | 1005.6 |
| 20260505195011 | 89 | 183 | 6.1 | 13.0 | 0.00 | 0.00 | 0.00 | 57 | 1005.7 |
| 20260505194511 | 89 | 165 | 5.2 | 10.4 | 0.00 | 0.00 | 0.00 | 57 | 1005.7 |
| 20260505194012 | 89 | 151 | 8.7 | 13.9 | 0.00 | 0.00 | 0.00 | 56 | 1005.7 |
| 20260505193511 | 89 | 202 | 5.2 | 13.0 | 0.00 | 0.00 | 0.00 | 56 | 1005.9 |
| 20260505193011 | 90 | 178 | 4.3 | 12.2 | 0.00 | 0.00 | 0.00 | 57 | 1006.0 |
| 20260505192512 | 90 | 171 | 5.2 | 12.2 | 0.00 | 0.00 | 0.00 | 57 | 1006.1 |
| 20260505192012 | 90 | 181 | 6.1 | 13.0 | 0.00 | 0.00 | 0.00 | 56 | 1006.1 |
| 20260505191512 | 90 | 172 | 7.8 | 13.0 | 0.00 | 0.00 | 0.00 | 56 | 1006.1 |
| 20260505191011 | 89 | 174 | 5.2 | 13.0 | 0.00 | 0.00 | 0.00 | 58 | 1006.2 |
| 20260505190511 | 89 | 194 | 7.8 | 12.2 | 0.00 | 0.00 | 0.00 | 57 | 1006.2 |
| 20260505190011 | 88 | 179 | 6.1 | 8.7 | 0.00 | 0.00 | 0.00 | 60 | 1006.2 |
| 20260505185011 | 88 | 170 | 7.8 | 12.2 | 0.00 | 0.00 | 0.00 | 61 | 1006.3 |
| 20260505184511 | 87 | 161 | 7.8 | 12.2 | 0.00 | 0.00 | 0.00 | 62 | 1006.3 |
| 20260505184011 | 88 | 170 | 6.1 | 11.3 | 0.00 | 0.00 | 0.00 | 60 | 1006.3 |
| 20260505183011 | 88 | 212 | 7.0 | 11.3 | 0.00 | 0.00 | 0.00 | 60 | 1006.4 |
| 20260505182012 | 87 | 186 | 6.1 | 11.3 | 0.00 | 0.00 | 0.00 | 61 | 1006.5 |
| 20260505181511 | 87 | 203 | 7.8 | 12.2 | 0.00 | 0.00 | 0.00 | 62 | 1006.5 |
| 20260505180511 | 86 | 169 | 7.0 | 12.2 | 0.00 | 0.00 | 0.00 | 63 | 1006.5 |
| 20260505180010 | 86 | 212 | 8.7 | 13.9 | 0.00 | 0.00 | 0.00 | 61 | 1006.6 |
| 20260505175511 | 86 | 166 | 6.1 | 10.4 | 0.00 | 0.00 | 0.00 | 65 | 1006.7 |
| 20260505175011 | 85 | 215 | 7.8 | 14.8 | 0.00 | 0.00 | 0.00 | 64 | 1006.8 |
| 20260505174012 | 85 | 203 | 4.3 | 7.0 | 0.00 | 0.00 | 0.00 | 68 | 1007.0 |
| 20260505173511 | 84 | 215 | 5.2 | 13.0 | 0.00 | 0.00 | 0.00 | 69 | 1007.1 |
| 20260505173011 | 84 | 221 | 7.0 | 11.3 | 0.00 | 0.00 | 0.00 | 68 | 1007.2 |
| 20260505172511 | 83 | 160 | 6.1 | 12.2 | 0.00 | 0.00 | 0.00 | 70 | 1007.1 |
| 20260505172012 | 83 | 226 | 7.8 | 11.3 | 0.00 | 0.00 | 0.00 | 70 | 1007.3 |
| 20260505171511 | 83 | 204 | 6.1 | 10.4 | 0.00 | 0.00 | 0.00 | 70 | 1007.3 |
| 20260505171011 | 83 | 211 | 6.1 | 8.7 | 0.00 | 0.00 | 0.00 | 72 | 1007.4 |
| 20260505170511 | 83 | 197 | 6.1 | 8.7 | 0.00 | 0.00 | 0.00 | 71 | 1007.5 |
| 20260505165512 | 83 | 207 | 6.1 | 10.4 | 0.00 | 0.00 | 0.00 | 71 | 1007.5 |
| 20260505165011 | 82 | 215 | 6.1 | 10.4 | 0.00 | 0.00 | 0.00 | 73 | 1007.6 |
| 20260505164511 | 82 | 205 | 7.0 | 10.4 | 0.00 | 0.00 | 0.00 | 73 | 1007.7 |
| 20260505164011 | 81 | 209 | 7.8 | 11.3 | 0.00 | 0.00 | 0.00 | 74 | 1007.7 |
| 20260505163511 | 82 | 228 | 7.0 | 11.3 | 0.00 | 0.00 | 0.00 | 74 | 1007.8 |
| 20260505163011 | 82 | 217 | 6.1 | 10.4 | 0.00 | 0.00 | 0.00 | 74 | 1007.9 |
| 20260505162511 | 81 | 202 | 6.1 | 11.3 | 0.00 | 0.00 | 0.00 | 75 | 1007.9 |
| 20260505162011 | 81 | 211 | 7.8 | 11.3 | 0.00 | 0.00 | 0.00 | 75 | 1007.9 |
| 20260505161511 | 81 | 190 | 7.0 | 11.3 | 0.00 | 0.00 | 0.00 | 76 | 1007.9 |
| 20260505161012 | 81 | 219 | 7.8 | 11.3 | 0.00 | 0.00 | 0.00 | 76 | 1007.9 |
| 20260505160511 | 81 | 209 | 7.0 | 12.2 | 0.00 | 0.00 | 0.00 | 75 | 1007.9 |
| 20260505153011 | 79 | 204 | 8.7 | 13.9 | 0.00 | 0.00 | 0.00 | 79 | 1007.6 |
| 20260505152511 | 79 | 208 | 8.7 | 13.0 | 0.00 | 0.00 | 0.00 | 80 | 1007.6 |
| 20260505152011 | 79 | 215 | 8.7 | 12.2 | 0.00 | 0.00 | 0.00 | 80 | 1007.5 |
| 20260505151511 | 79 | 213 | 7.8 | 12.2 | 0.00 | 0.00 | 0.00 | 80 | 1007.5 |
| 20260505151011 | 79 | 209 | 7.0 | 11.3 | 0.00 | 0.00 | 0.00 | 81 | 1007.5 |
| 20260505150511 | 78 | 225 | 7.0 | 11.3 | 0.00 | 0.00 | 0.00 | 82 | 1007.6 |